Weather observations for the past three days for
Mansfield - Mansfield Lahm Regional Airport
Imperial (Metric)
Date Time (edt) Wind (mph) Vis. (mi.) Weather Sky Cond. Temperature (ºF) Relative Humidity Wind Chill (°F) Heat Index (°F) Pressure Precipitation (in)
Air Dwpt 6 hour altimeter (in) sea level (mb) 1 hr 3 hr 6 hr
Max. Min.
20 20:52 NE 6 10.00 Fair CLR 72 55.9 57% 30.1 1018.5
20 19:52 N 7 10.00 Fair CLR 73.9 57 82 73.9 56% 30.1 1018.7
20 18:52 N 7 10.00 A Few Clouds FEW060 80.1 54 41% 80 30.1 1018.5
20 17:52 W 7 10.00 Fair CLR 82 52 35% 81 30.09 1018.3
20 16:52 Calm 10.00 Fair CLR 82 50 33% 81 30.11 1018.8
20 15:52 Vrbl 6 10.00 Fair CLR 82 48.9 32% 81 30.11 1019.0
20 14:52 Vrbl 5 10.00 Fair CLR 80.1 48.9 34% 79 30.13 1019.4
20 13:52 Calm 10.00 Fair CLR 80.1 51.1 82 64 37% 80 30.13 1019.5
20 12:52 Vrbl 5 10.00 Fair CLR 80.1 53.1 39% 80 30.14 1020.0
20 11:52 Vrbl 5 10.00 A Few Clouds FEW050 78.1 51.1 39% 79 30.14 1020.0
20 10:52 N 8 10.00 Fair CLR 77 51.1 40% 78 30.14 1019.8
20 09:52 Vrbl 3 10.00 Fair CLR 75 52 45% 78 30.14 1019.9
20 07:52 Calm 10.00 Fair CLR 63 53.1 63 55 70% 30.14 1020.1
20 06:52 Calm 10.00 Fair CLR 57 50 78% 30.14 1019.9
20 05:52 Calm 10.00 Fair CLR 55.9 48.9 77% 30.14 1020.0
20 04:52 Calm 10.00 Fair CLR 55.9 48 75% 30.13 1019.8
20 03:52 Calm 10.00 Fair CLR 57.9 48 70% 30.13 1019.8
20 02:52 Calm 10.00 Fair CLR 59 46.9 64% 30.14 1019.8
20 01:52 Calm 10.00 Fair CLR 61 46.9 73 60.1 60% 30.14 1020.0
20 00:52 E 3 10.00 Fair CLR 61 46.9 60% 30.16 1020.5
19 23:52 Calm 10.00 Fair CLR 61 46.9 60% 30.16 1020.6
19 22:52 N 5 10.00 Fair CLR 63 46 54% 30.17 1021.2
19 21:52 N 5 10.00 Fair CLR 66 45 47% 30.17 1020.9
19 20:52 N 6 10.00 Fair CLR 68 46 45% 30.16 1020.7
19 19:52 N 9 10.00 Fair CLR 73 50 80.1 73 44% 30.15 1020.3
19 18:52 N 12 10.00 Fair CLR 75.9 52 43% 78 30.14 1020.3
19 17:52 NW 14 G 18 10.00 A Few Clouds FEW060 78.1 53.1 42% 79 30.13 1019.9
19 16:52 E 9 10.00 Fair CLR 79 50 36% 79 30.15 1020.4
19 15:52 Vrbl 7 10.00 Fair CLR 78.1 51.1 39% 79 30.16 1020.7
19 14:52 NE 8 10.00 Fair CLR 79 51.1 38% 79 30.18 1021.5
19 13:52 Vrbl 6 10.00 Fair CLR 77 50 78.1 62.1 39% 78 30.19 1021.9
19 12:52 N 8 10.00 Fair CLR 75.9 48.9 39% 78 30.21 1022.3
19 11:52 Vrbl 3 10.00 Fair CLR 72 50 46% 30.21 1022.6
19 10:52 NE 9 10.00 Fair CLR 71.1 50 47% 30.22 1022.8
19 09:52 N 13 10.00 Fair CLR 69.1 53.1 57% 30.22 1022.9
19 08:52 NE 7 10.00 Fair CLR 66 52 61% 30.22 1022.9
19 07:52 Calm 10.00 Fair CLR 61 54 61 51.1 78% 30.21 1022.5
19 06:52 Calm 10.00 Fair CLR 53.1 51.1 93% 30.2 1022.2
19 05:52 Calm 10.00 Fair CLR 54 50 87% 30.19 1021.8
19 04:52 Calm 10.00 Fair CLR 54 50 87% 30.18 1021.5
19 03:52 Calm 10.00 Fair CLR 57.9 51.1 78% 30.17 1021.1
19 02:52 N 3 10.00 Fair CLR 57.9 51.1 78% 30.18 1021.3
19 01:52 N 5 10.00 Fair CLR 59 52 70 59 78% 30.19 1021.7
19 00:52 Calm 10.00 Fair CLR 59 53.1 81% 30.19 1021.7
18 23:52 N 3 10.00 Fair CLR 60.1 53.1 78% 30.17 1021.1
18 22:52 N 3 10.00 Fair CLR 62.1 54 75% 30.16 1020.9
18 21:52 N 6 10.00 Fair CLR 63 54 73% 30.15 1020.5
18 20:52 N 8 10.00 Fair CLR 66 53.1 63% 30.14 1020.2
18 19:52 N 12 10.00 Fair CLR 70 52 77 70 53% 30.13 1019.7
18 18:52 N 12 10.00 Mostly Cloudy BKN047 73 51.1 46% 30.12 1019.4
18 17:52 N 12 G 21 10.00 Fair CLR 73.9 51.1 45% 30.11 1019.2
18 16:52 N 15 10.00 A Few Clouds FEW041 75.9 54 47% 78 30.11 1019.0
18 15:52 N 13 10.00 Mostly Cloudy SCT041 BKN049 75.9 54 47% 78 30.11 1018.8
18 14:52 N 14 10.00 A Few Clouds FEW045 75.9 54 47% 78 30.11 1018.8
18 13:52 N 10 G 20 10.00 Partly Cloudy SCT041 SCT050 75.9 55 77 64.9 48% 78 30.11 1018.8
18 12:52 NW 14 G 21 10.00 Mostly Cloudy SCT033 BKN050 72 55.9 57% 30.11 1018.8
18 11:52 N 10 10.00 A Few Clouds FEW050 75 57 54% 78 30.11 1018.8
18 10:52 NW 10 10.00 Mostly Cloudy SCT023 BKN033 BKN046 69.1 57.9 68% 30.11 1018.8
18 09:52 N 8 10.00 Overcast SCT020 OVC028 70 59 68% 30.1 1018.3
18 08:52 N 10 10.00 Partly Cloudy SCT021 66.9 59 76% 30.08 1017.8
18 07:52 N 7 10.00 Mostly Cloudy BKN050 64.9 59 66.9 59 81% 30.06 1017.2
18 06:52 N 8 8.00 Partly Cloudy SCT050 61 57.9 90% 30.04 1016.5
18 05:52 NW 7 9.00 Fair CLR 60.1 57 90% 30.02 1015.9
18 04:52 NW 6 10.00 Mostly Cloudy FEW028 BKN045 63 60.1 90% 30.01 1015.4
18 03:52 NW 6 10.00 Mostly Cloudy SCT014 BKN020 63 59 87% 29.99 1014.8
18 02:52 W 5 10.00 Fair CLR 64 57.9 81% 30 1014.9
18 01:52 W 6 10.00 Fair CLR 66.9 57.9 79 66.9 73% 29.99 1014.8
18 00:52 W 3 10.00 A Few Clouds FEW060 69.1 59 70% 29.99 1014.6
17 23:52 Calm 10.00 Partly Cloudy FEW046 SCT080 68 60.1 76% 29.98 1014.5
17 22:52 NW 3 10.00 Overcast SCT050 OVC110 71.1 60.1 68% 29.97 1014.1
17 21:52 N 3 10.00 Mostly Cloudy FEW060 BKN110 73 59 62% 29.97 1013.8
Date Time (edt) Wind (mph) Vis. (mi.) Weather Sky Cond. Air Dwpt Max. Min. Relative Humidity Wind Chill (°F) Heat Index (°F) altimeter (in) sea level (mb) 1 hr 3 hr 6 hr
6 hour
Temperature (ºF) Pressure Precipitation (in)